SCP
0 0 0 0 0 0 0 0 0 0 0 0 0 0 0 0 0 0 0 0 0 0 0 0 0 0 0 0 0 0 0 0 0 0 0 0 0 0 -0 -0 -0 -0 -0 -0
0 0 0 0 0 0 0 0 0 0 0 0 0 0 0 0 0 0 0 0 0 0 0 0 0 0 0 0 0 0 0 0 0 0 0 0 0 0 0 0 0 0 0 -0
0 0 0 0 0 0 0 0 0 0 0 0 0 0 0 0 0 0 0 0 0 0 0 0 0 0 0 0 0 0 0 0 0 0 0 0 0 0 0 0 0 0 0 0
0 0 0 0 0 0 0 0 0 0 0 0 0 0 0 0 0 0 0 0 0 0 0 0 0 0 0 0 0 0 0 0 0 0 0 0 0 0 0 0 0 0 0 0
0 0 0 0 0 0 0 0 0 0 0 0 0 0 0 0 0 0 0 0 0 0 0 0 0 0 0 0 0 0 0 0 0 0 0 0 0 0 0 0 0 0 0 0
0 0 0 0 0 0 0 0 0 0 0 0 0 0 0 0 0 0 0 0 0 0 0 0 0 0 0 0 0 0 0 0 0 0 0 0 0 0 0 0 0 0 0 0
0 0 0 0 0 0 0 0 0 0 0 0 0 0 0 0 0 0 0 0 0 0 0 0 0 0 0 0 0 0 0 0 0 0 0 0 0 0 0 0 0 0 0 0
0 0 0 0 0 0 0 0 0 0 0 0 0 0 0 0 0 0 0 0 0 0 0 0 0 0 0 0 0 0 0 0 0 0 0 0 0 0 0 0 0 0 0 0
0 0 0 0 0 0 0 0 0 0 0 0 0 0 0 0 0 0 0 0 0 0 0 0 0 0 0 0 0 0 0 0 0 0 0 0 0 0 0 0 0 0 0 0
0 0 0 0 0 0 0 0 0 0 0 0 0 0 0 0 0 0 0 0 0 0 0 0 0 0 0 0 0 0 0 0 0 0 0 0 0 0 0 0 0 0 0 0
0 0 0 0 0 0 0 0 0 0 0 0 0 0 0 0 0 0 0 0 0 0 0 0 0 0 0 0 0 0 0 0 0 0 0 0 0 0 0 0 0 0 0 0
0 0 0 0 0 0 0 0 0 0 0 0 0 0 0 0 0 0 0 0 0 0 0 0 0 0 0 0 0 0 0 0 0 0 0 0 0 0 0 0 0 -0 0 0
0 0 0 0 0 0 0 0 0 0 0 0 0 0 0 0 0 0 0 0 0 0 0 0 0 0 0 0 0 0 0 0 0 0 0 0 0 -0 -0 0 0 0 0 0
0 0 0 0 0 0 0 0 0 0 0 0 0 0 0 0 0 0 0 0 0 0 0 0 0 0 0 0 0 0 0 0 0 0 0 0 -0 -0 0 0 0 0 0 0
0 0 0 0 0 0 0 0 0 0 0 0 0 0 0 0 0 0 0 0 0 0 0 0 0 0 0 0 0 0 0 0 0 0 0 0 0 0 0 0 0 0 0 0
0 0 0 0 0 0 0 0 0 0 0 0 0 0 0 0 0 0 0 0 0 0 0 0 0 0 0 0 0 0 0 0 0 0 0 0 0 0 0 0 0 0 0 0
0 0 0 0 0 0 0 0 0 0 0 0 0 0 0 0 0 0 0 0 0 0 0 0 0 0 0 0 0 0 0 0 0 0 0 0 0 0 0 0 0 0 0 0
0 0 0 0 0 0 0 0 0 0 0 0 0 0 0 0 0 0 0 0 0 0 0 0 0 0 0 0 0 0 0 0 0 0 0 0 0 0 0 0 0 0 0 0
0 0 0 0 0 0 0 0 0 0 0 0 0 0 0 0 0 0 0 0 0 0 0 0 0 0 0 0 0 0 0 0 0 0 0 0 0 0 0 0 0 0 0 0
0 0 0 0 0 0 0 0 0 0 0 0 0 0 0 0 0 0 0 0 0 0 0 0 0 0 0 0 0 0 0 0 0 0 0 0 0 0 0 0 0 0 0 0
0 0 0 0 0 0 0 0 0 0 0 0 0 0 0 0 0 0 0 0 0 0 0 0 0 0 0 0 0 0 0 0 0 0 0 0 0 0 0 0 0 0 0 0
0 0 0 0 0 0 0 0 0 0 0 0 0 0 0 0 0 0 0 0 0 0 0 0 0 0 0 0 0 0 0 0 0 0 0 0 0 0 0 0 0 0 0 0
0 0 0 0 0 0 0 0 0 0 0 0 0 0 0 0 0 0 0 0 0 0 0 0 0 0 0 0 0 0 0 0 0 0 0 0 0 0 0 0 0 0 0 0
0 0 0 0 0 0 0 0 0 0 0 0 0 0 0 0 0 0 0 0 0 0 0 0 0 0 0 0 0 0 0 0 -0 0 0 0 0 0 0 0 0 0 0 0
0 0 0 0 0 0 0 0 0 0 0 0 0 0 0 0 0 0 0 0 0 0 0 0 0 0 0 0 0 0 0 -0 -0 0 0 0 0 0 0 0 0 0 0 0
0 0 0 0 0 0 0 0 0 0 0 0 0 0 0 0 0 0 0 0 0 0 0 0 0 0 0 0 0 0 -0 -0 0 0 0 0 0 0 0 0 0 0 0 0
0 0 0 0 0 0 0 0 0 0 0 0 0 0 0 0 0 0 0 0 -0 -0 0 0 0 0 0 0 0 -0 -0 0 0 0 0 0 0 0 0 0 0 0 0 0
Wind_Speed_500mb
6 9 7 10 16 15 15 12 15 33 19 29 13 10 26 26 21 24 37 41 37 30 28 27 23 19 23 23 27 33 38 41 46 49 54 58 62 65 70 76 83 89 95 99
5 6 10 13 27 12 23 26 22 29 39 29 42 21 9 14 17 21 31 36 34 33 39 38 34 33 32 32 34 38 42 45 52 56 59 61 64 70 78 86 93 99 103 107
11 5 5 16 18 33 24 17 17 21 25 2 9 18 27 26 23 21 23 24 27 27 27 31 36 38 37 36 37 40 43 47 53 59 62 65 72 82 91 97 101 104 105 105
5 6 4 11 5 7 19 15 13 5 7 14 20 26 26 33 27 26 25 26 29 28 30 32 34 34 33 36 38 42 46 51 56 58 63 73 83 88 92 97 100 103 105 105
8 10 13 25 13 14 15 15 14 14 6 22 28 16 19 29 26 22 16 17 26 33 39 42 42 40 41 41 42 46 50 55 56 62 72 79 84 89 91 94 98 101 103 104
7 10 19 14 2 21 12 9 19 31 24 23 23 6 13 35 28 28 29 34 39 41 41 44 43 42 41 41 44 46 50 53 62 72 77 81 83 85 88 91 96 99 101 96
20 8 15 16 16 13 10 15 20 22 27 29 13 36 25 23 36 36 36 37 39 44 46 45 43 43 43 46 47 50 52 58 66 69 75 77 81 83 86 89 90 94 92 83
5 8 16 26 13 15 13 12 14 28 38 43 46 40 38 44 47 42 39 38 43 48 50 49 47 46 48 49 51 50 55 65 67 69 70 71 77 80 80 83 86 82 78 78
21 15 8 42 33 58 50 36 36 41 47 48 44 48 51 50 44 44 35 40 44 50 53 51 48 47 49 51 51 52 62 65 66 68 66 68 72 74 76 75 74 73 73 76
8 11 16 30 48 41 39 52 57 53 53 54 53 57 54 49 52 49 43 43 44 49 54 50 48 49 50 52 51 55 63 64 65 66 67 68 66 64 67 67 67 68 74 84
7 14 36 44 53 59 70 71 69 66 61 66 66 59 54 56 53 46 47 48 50 53 54 51 49 49 49 49 51 56 60 61 61 61 64 66 63 59 60 61 57 64 71 74
14 48 41 45 56 58 62 62 63 63 54 54 56 52 52 50 51 49 48 49 54 55 52 48 48 49 48 49 52 55 58 59 58 58 60 60 62 62 45 54 55 53 55 56
49 78 58 65 69 74 74 72 70 63 61 57 56 53 53 54 54 51 47 52 54 52 51 50 51 50 47 49 50 51 55 56 55 55 55 56 55 58 68 59 54 53 45 50
74 64 53 78 56 73 63 64 63 57 58 57 57 55 57 56 52 48 47 47 50 51 50 52 51 45 48 48 48 48 50 49 50 49 50 49 49 52 55 61 65 63 56 56
75 76 75 77 68 70 68 66 63 64 61 53 51 47 47 47 46 45 46 47 49 51 49 50 48 43 49 48 47 46 45 46 44 45 44 43 43 44 47 52 54 58 60 57
71 58 52 55 59 57 58 61 61 55 46 42 41 44 44 43 42 43 44 48 50 52 47 48 48 45 45 46 46 43 43 42 42 41 40 38 37 37 40 44 47 50 53 57
60 65 61 55 51 54 53 47 43 41 39 40 40 39 40 41 40 39 42 48 51 50 45 46 45 45 47 46 45 43 41 38 39 36 35 34 33 31 34 36 39 43 46 49
67 62 57 56 51 38 37 38 37 37 36 35 35 35 35 36 37 39 44 48 50 49 41 48 47 46 43 43 44 41 38 35 33 31 31 28 27 26 29 31 33 38 41 42
65 56 51 42 36 34 36 35 34 34 34 33 33 33 35 35 38 39 43 46 46 48 38 48 46 47 44 43 39 36 35 31 28 28 27 25 22 23 25 26 28 31 36 40
48 42 37 34 29 27 28 29 29 27 25 26 26 28 31 34 40 44 51 54 48 48 48 43 44 43 41 38 34 33 31 29 27 26 24 23 23 22 23 24 26 29 32 35
39 34 30 26 24 24 23 19 17 17 16 19 24 29 34 36 40 48 52 59 43 48 47 40 37 36 36 34 31 31 30 28 27 26 26 24 23 24 24 25 27 29 31 34
34 29 26 23 19 16 14 12 10 12 18 24 29 34 38 40 42 45 46 49 39 34 33 32 32 30 29 29 31 30 30 29 27 27 28 28 29 29 28 29 31 32 33 35
29 25 22 18 14 10 7 7 10 14 17 21 25 28 32 33 34 37 34 24 24 19 17 21 22 23 26 26 26 27 28 28 27 28 29 30 31 32 32 32 32 33 33 34
26 21 17 15 10 7 7 9 10 12 14 17 19 21 22 21 16 23 26 23 20 20 22 22 21 16 27 25 26 27 27 26 26 28 28 28 29 30 31 33 34 33 32 33
23 22 19 13 8 5 4 4 6 8 10 11 12 14 16 19 22 21 21 22 21 22 22 19 19 24 23 25 25 25 23 24 25 26 27 28 29 29 30 31 33 33 32 33
20 16 12 8 6 5 3 0 1 2 5 7 11 13 14 17 19 21 20 20 19 18 18 18 18 20 21 22 22 21 23 25 26 27 29 32 33 32 33 33 34 34 35 34
15 13 10 9 8 6 5 2 1 3 5 6 8 12 12 14 16 18 19 18 17 17 16 17 17 18 19 20 23 25 27 28 29 30 33 35 35 35 35 35 35 36 36 36
Wind_Direction_500mb
164 142 183 222 238 167 200 206 208 264 232 259 260 239 278 291 277 240 226 215 220 228 235 237 243 264 282 288 297 304 309 311 312 312 312 315 316 315 315 315 314 312 310 307
299 201 218 256 260 195 215 242 242 253 268 271 284 285 246 241 232 219 214 218 227 234 240 239 245 258 265 267 273 281 289 294 299 303 307 309 310 311 310 309 306 305 303 303
249 58 78 299 233 228 239 213 219 229 242 284 276 246 239 229 220 206 206 213 224 237 242 234 246 249 249 253 264 270 277 286 294 300 305 307 309 308 308 307 306 304 302 301
180 42 254 254 262 237 226 248 201 197 228 213 244 268 241 219 225 239 242 242 233 246 245 252 250 244 252 265 277 277 283 290 297 301 305 307 308 308 308 307 306 306 305 303
172 205 308 288 228 178 178 255 186 190 222 236 251 221 231 225 239 233 228 240 248 269 258 256 252 257 259 263 270 278 288 296 301 306 309 310 310 311 311 310 308 307 306 304
118 174 212 252 231 134 114 284 203 190 219 223 160 176 240 225 215 237 263 274 270 266 257 246 248 253 255 265 279 288 295 300 307 311 311 312 314 314 313 313 311 310 308 308
222 237 281 244 227 131 116 244 178 206 235 215 189 224 254 271 243 256 281 276 262 260 254 250 252 258 266 280 288 294 297 303 309 312 314 315 316 317 316 315 314 313 311 310
142 202 268 195 127 184 207 181 236 246 239 222 236 238 250 270 261 263 273 266 266 258 248 247 251 260 272 280 287 291 300 309 313 314 315 316 317 318 319 321 319 315 315 316
189 203 235 191 211 218 239 246 255 249 257 228 232 251 269 273 262 262 264 267 268 253 243 244 255 268 278 283 288 295 306 311 313 314 316 319 319 322 326 325 318 318 320 324
95 215 220 203 221 232 247 266 271 267 256 245 254 263 271 264 270 261 268 277 264 252 244 251 264 273 277 282 286 297 306 309 312 314 319 318 322 329 328 325 320 322 326 322
273 284 263 247 246 258 269 276 275 264 258 263 266 267 272 268 265 263 273 270 256 249 249 257 266 270 275 278 287 299 304 308 312 315 317 320 325 334 331 328 320 314 310 310
237 249 246 257 266 267 269 270 273 271 264 269 265 267 272 269 269 267 271 264 255 251 254 261 269 272 276 281 290 300 305 309 312 315 318 323 326 329 336 329 329 310 308 307
242 257 264 267 269 270 275 276 274 265 269 267 264 270 269 266 265 265 260 255 252 257 262 267 270 273 274 279 290 297 301 304 308 314 319 323 327 331 333 339 344 342 328 321
256 257 261 265 255 270 274 279 276 270 272 266 267 265 259 257 259 256 253 255 258 260 264 270 271 272 275 282 289 295 298 300 304 312 318 322 326 332 334 336 343 350 350 346
260 261 256 267 265 271 277 277 273 271 269 262 258 251 250 252 255 256 258 260 260 262 264 266 268 272 275 283 288 291 294 296 304 310 315 321 323 328 333 339 344 346 350 351
261 262 258 259 270 275 276 275 270 263 257 257 258 258 258 259 259 261 262 262 263 265 267 272 274 277 281 283 286 290 291 295 302 308 316 316 320 327 333 339 346 351 355 353
249 260 261 266 269 276 273 267 257 249 248 256 258 258 258 258 259 259 259 261 265 270 273 274 277 280 282 284 287 287 288 292 298 308 314 316 319 328 332 338 344 350 357 357
257 259 263 271 272 262 250 243 241 249 256 256 256 256 258 261 262 262 264 266 271 275 280 278 280 279 278 279 280 282 285 288 294 304 310 314 318 326 329 334 342 346 352 359
254 254 256 249 248 240 236 240 243 244 245 250 255 262 269 274 276 276 274 274 275 277 276 274 277 278 275 275 275 276 278 282 289 296 304 311 315 319 324 334 342 348 352 356
236 229 229 229 229 230 229 227 232 241 252 262 269 274 276 278 280 282 282 283 285 286 280 276 271 268 266 266 264 267 272 277 281 287 297 306 313 317 323 331 337 344 349 354
218 214 212 215 216 215 218 225 239 252 265 279 285 289 292 292 289 288 288 287 293 281 280 273 264 259 257 256 256 262 267 270 276 283 289 296 304 311 318 325 330 335 340 345
201 201 203 202 202 210 217 226 243 272 290 298 301 301 301 303 301 298 298 297 296 278 274 266 258 252 252 251 255 261 264 266 271 279 287 294 299 303 308 315 319 323 328 333
185 186 187 189 192 201 228 262 282 293 300 305 308 309 313 316 315 312 312 300 293 277 271 266 263 257 252 252 255 260 264 268 273 279 284 290 295 300 306 311 314 316 322 326
166 167 170 172 182 202 243 279 302 316 319 322 324 324 328 328 327 314 315 313 305 296 288 283 271 251 254 262 262 263 265 269 275 279 283 289 294 298 303 307 310 314 321 324
153 159 166 171 180 208 247 282 319 332 340 339 335 338 329 322 324 324 320 314 306 292 288 280 266 260 267 265 265 265 268 275 278 281 286 291 292 296 299 303 307 313 317 321
151 154 158 166 174 183 184 243 310 343 350 343 329 331 323 318 316 318 314 310 307 300 294 287 279 276 274 270 270 275 277 279 281 286 291 291 293 296 298 300 304 306 309 312
157 159 163 167 171 170 166 167 272 340 343 344 330 324 326 322 327 321 317 315 311 306 301 297 292 287 285 288 284 282 283 283 286 288 289 290 293 296 298 301 303 304 306 307
Wind_Speed_850mb
6 9 7 10 16 15 15 12 15 33 19 29 13 10 26 26 21 24 37 41 37 30 28 27 23 19 23 23 27 33 38 41 46 49 54 58 62 65 70 76 83 89 95 99
5 6 10 13 27 12 23 26 22 29 39 29 42 21 9 14 17 21 31 36 34 33 39 38 34 33 32 32 34 38 42 45 52 56 59 61 64 70 78 86 93 99 103 107
11 5 5 16 18 33 24 17 17 21 25 2 9 18 27 26 23 21 23 24 27 27 27 31 36 38 37 36 37 40 43 47 53 59 62 65 72 82 91 97 101 104 105 105
5 6 4 11 5 7 19 15 13 5 7 14 20 26 26 33 27 26 25 26 29 28 30 32 34 34 33 36 38 42 46 51 56 58 63 73 83 88 92 97 100 103 105 105
8 10 13 25 13 14 15 15 14 14 6 22 28 16 19 29 26 22 16 17 26 33 39 42 42 40 41 41 42 46 50 55 56 62 72 79 84 89 91 94 98 101 103 104
7 10 19 14 2 21 12 9 19 31 24 23 23 6 13 35 28 28 29 34 39 41 41 44 43 42 41 41 44 46 50 53 62 72 77 81 83 85 88 91 96 99 101 96
20 8 15 16 16 13 10 15 20 22 27 29 13 36 25 23 36 36 36 37 39 44 46 45 43 43 43 46 47 50 52 58 66 69 75 77 81 83 86 89 90 94 92 83
5 8 16 26 13 15 13 12 14 28 38 43 46 40 38 44 47 42 39 38 43 48 50 49 47 46 48 49 51 50 55 65 67 69 70 71 77 80 80 83 86 82 78 78
21 15 8 42 33 58 50 36 36 41 47 48 44 48 51 50 44 44 35 40 44 50 53 51 48 47 49 51 51 52 62 65 66 68 66 68 72 74 76 75 74 73 73 76
8 11 16 30 48 41 39 52 57 53 53 54 53 57 54 49 52 49 43 43 44 49 54 50 48 49 50 52 51 55 63 64 65 66 67 68 66 64 67 67 67 68 74 84
7 14 36 44 53 59 70 71 69 66 61 66 66 59 54 56 53 46 47 48 50 53 54 51 49 49 49 49 51 56 60 61 61 61 64 66 63 59 60 61 57 64 71 74
14 48 41 45 56 58 62 62 63 63 54 54 56 52 52 50 51 49 48 49 54 55 52 48 48 49 48 49 52 55 58 59 58 58 60 60 62 62 45 54 55 53 55 56
49 78 58 65 69 74 74 72 70 63 61 57 56 53 53 54 54 51 47 52 54 52 51 50 51 50 47 49 50 51 55 56 55 55 55 56 55 58 68 59 54 53 45 50
74 64 53 78 56 73 63 64 63 57 58 57 57 55 57 56 52 48 47 47 50 51 50 52 51 45 48 48 48 48 50 49 50 49 50 49 49 52 55 61 65 63 56 56
75 76 75 77 68 70 68 66 63 64 61 53 51 47 47 47 46 45 46 47 49 51 49 50 48 43 49 48 47 46 45 46 44 45 44 43 43 44 47 52 54 58 60 57
71 58 52 55 59 57 58 61 61 55 46 42 41 44 44 43 42 43 44 48 50 52 47 48 48 45 45 46 46 43 43 42 42 41 40 38 37 37 40 44 47 50 53 57
60 65 61 55 51 54 53 47 43 41 39 40 40 39 40 41 40 39 42 48 51 50 45 46 45 45 47 46 45 43 41 38 39 36 35 34 33 31 34 36 39 43 46 49
67 62 57 56 51 38 37 38 37 37 36 35 35 35 35 36 37 39 44 48 50 49 41 48 47 46 43 43 44 41 38 35 33 31 31 28 27 26 29 31 33 38 41 42
65 56 51 42 36 34 36 35 34 34 34 33 33 33 35 35 38 39 43 46 46 48 38 48 46 47 44 43 39 36 35 31 28 28 27 25 22 23 25 26 28 31 36 40
48 42 37 34 29 27 28 29 29 27 25 26 26 28 31 34 40 44 51 54 48 48 48 43 44 43 41 38 34 33 31 29 27 26 24 23 23 22 23 24 26 29 32 35
39 34 30 26 24 24 23 19 17 17 16 19 24 29 34 36 40 48 52 59 43 48 47 40 37 36 36 34 31 31 30 28 27 26 26 24 23 24 24 25 27 29 31 34
34 29 26 23 19 16 14 12 10 12 18 24 29 34 38 40 42 45 46 49 39 34 33 32 32 30 29 29 31 30 30 29 27 27 28 28 29 29 28 29 31 32 33 35
29 25 22 18 14 10 7 7 10 14 17 21 25 28 32 33 34 37 34 24 24 19 17 21 22 23 26 26 26 27 28 28 27 28 29 30 31 32 32 32 32 33 33 34
26 21 17 15 10 7 7 9 10 12 14 17 19 21 22 21 16 23 26 23 20 20 22 22 21 16 27 25 26 27 27 26 26 28 28 28 29 30 31 33 34 33 32 33
23 22 19 13 8 5 4 4 6 8 10 11 12 14 16 19 22 21 21 22 21 22 22 19 19 24 23 25 25 25 23 24 25 26 27 28 29 29 30 31 33 33 32 33
20 16 12 8 6 5 3 0 1 2 5 7 11 13 14 17 19 21 20 20 19 18 18 18 18 20 21 22 22 21 23 25 26 27 29 32 33 32 33 33 34 34 35 34
15 13 10 9 8 6 5 2 1 3 5 6 8 12 12 14 16 18 19 18 17 17 16 17 17 18 19 20 23 25 27 28 29 30 33 35 35 35 35 35 35 36 36 36
Wind_Direction_850mb
164 142 183 222 238 167 200 206 208 264 232 259 260 239 278 291 277 240 226 215 220 228 235 237 243 264 282 288 297 304 309 311 312 312 312 315 316 315 315 315 314 312 310 307
299 201 218 256 260 195 215 242 242 253 268 271 284 285 246 241 232 219 214 218 227 234 240 239 245 258 265 267 273 281 289 294 299 303 307 309 310 311 310 309 306 305 303 303
249 58 78 299 233 228 239 213 219 229 242 284 276 246 239 229 220 206 206 213 224 237 242 234 246 249 249 253 264 270 277 286 294 300 305 307 309 308 308 307 306 304 302 301
180 42 254 254 262 237 226 248 201 197 228 213 244 268 241 219 225 239 242 242 233 246 245 252 250 244 252 265 277 277 283 290 297 301 305 307 308 308 308 307 306 306 305 303
172 205 308 288 228 178 178 255 186 190 222 236 251 221 231 225 239 233 228 240 248 269 258 256 252 257 259 263 270 278 288 296 301 306 309 310 310 311 311 310 308 307 306 304
118 174 212 252 231 134 114 284 203 190 219 223 160 176 240 225 215 237 263 274 270 266 257 246 248 253 255 265 279 288 295 300 307 311 311 312 314 314 313 313 311 310 308 308
222 237 281 244 227 131 116 244 178 206 235 215 189 224 254 271 243 256 281 276 262 260 254 250 252 258 266 280 288 294 297 303 309 312 314 315 316 317 316 315 314 313 311 310
142 202 268 195 127 184 207 181 236 246 239 222 236 238 250 270 261 263 273 266 266 258 248 247 251 260 272 280 287 291 300 309 313 314 315 316 317 318 319 321 319 315 315 316
189 203 235 191 211 218 239 246 255 249 257 228 232 251 269 273 262 262 264 267 268 253 243 244 255 268 278 283 288 295 306 311 313 314 316 319 319 322 326 325 318 318 320 324
95 215 220 203 221 232 247 266 271 267 256 245 254 263 271 264 270 261 268 277 264 252 244 251 264 273 277 282 286 297 306 309 312 314 319 318 322 329 328 325 320 322 326 322
273 284 263 247 246 258 269 276 275 264 258 263 266 267 272 268 265 263 273 270 256 249 249 257 266 270 275 278 287 299 304 308 312 315 317 320 325 334 331 328 320 314 310 310
237 249 246 257 266 267 269 270 273 271 264 269 265 267 272 269 269 267 271 264 255 251 254 261 269 272 276 281 290 300 305 309 312 315 318 323 326 329 336 329 329 310 308 307
242 257 264 267 269 270 275 276 274 265 269 267 264 270 269 266 265 265 260 255 252 257 262 267 270 273 274 279 290 297 301 304 308 314 319 323 327 331 333 339 344 342 328 321
256 257 261 265 255 270 274 279 276 270 272 266 267 265 259 257 259 256 253 255 258 260 264 270 271 272 275 282 289 295 298 300 304 312 318 322 326 332 334 336 343 350 350 346
260 261 256 267 265 271 277 277 273 271 269 262 258 251 250 252 255 256 258 260 260 262 264 266 268 272 275 283 288 291 294 296 304 310 315 321 323 328 333 339 344 346 350 351
261 262 258 259 270 275 276 275 270 263 257 257 258 258 258 259 259 261 262 262 263 265 267 272 274 277 281 283 286 290 291 295 302 308 316 316 320 327 333 339 346 351 355 353
249 260 261 266 269 276 273 267 257 249 248 256 258 258 258 258 259 259 259 261 265 270 273 274 277 280 282 284 287 287 288 292 298 308 314 316 319 328 332 338 344 350 357 357
257 259 263 271 272 262 250 243 241 249 256 256 256 256 258 261 262 262 264 266 271 275 280 278 280 279 278 279 280 282 285 288 294 304 310 314 318 326 329 334 342 346 352 359
254 254 256 249 248 240 236 240 243 244 245 250 255 262 269 274 276 276 274 274 275 277 276 274 277 278 275 275 275 276 278 282 289 296 304 311 315 319 324 334 342 348 352 356
236 229 229 229 229 230 229 227 232 241 252 262 269 274 276 278 280 282 282 283 285 286 280 276 271 268 266 266 264 267 272 277 281 287 297 306 313 317 323 331 337 344 349 354
218 214 212 215 216 215 218 225 239 252 265 279 285 289 292 292 289 288 288 287 293 281 280 273 264 259 257 256 256 262 267 270 276 283 289 296 304 311 318 325 330 335 340 345
201 201 203 202 202 210 217 226 243 272 290 298 301 301 301 303 301 298 298 297 296 278 274 266 258 252 252 251 255 261 264 266 271 279 287 294 299 303 308 315 319 323 328 333
185 186 187 189 192 201 228 262 282 293 300 305 308 309 313 316 315 312 312 300 293 277 271 266 263 257 252 252 255 260 264 268 273 279 284 290 295 300 306 311 314 316 322 326
166 167 170 172 182 202 243 279 302 316 319 322 324 324 328 328 327 314 315 313 305 296 288 283 271 251 254 262 262 263 265 269 275 279 283 289 294 298 303 307 310 314 321 324
153 159 166 171 180 208 247 282 319 332 340 339 335 338 329 322 324 324 320 314 306 292 288 280 266 260 267 265 265 265 268 275 278 281 286 291 292 296 299 303 307 313 317 321
151 154 158 166 174 183 184 243 310 343 350 343 329 331 323 318 316 318 314 310 307 300 294 287 279 276 274 270 270 275 277 279 281 286 291 291 293 296 298 300 304 306 309 312
157 159 163 167 171 170 166 167 272 340 343 344 330 324 326 322 327 321 317 315 311 306 301 297 292 287 285 288 284 282 283 283 286 288 289 290 293 296 298 301 303 304 306 307